Weather History for KCTB - August, 2013

Change the Weather History Date:

Monday, August 19, 2013

  Actual Average Record
Temperature  
Mean Temperature 71 °F 63 °F  
Max Temperature 88 °F 79 °F 93 °F (1917)
Min Temperature 54 °F 48 °F 31 °F (1950)
Degree Days  
Heating Degree Days 0 4  
Month to date heating degree days 23 49  
Since 1 June heating degree days 273 368  
Since 1 July heating degree days 64 135  
Cooling Degree Days 6 2  
Month to date cooling degree days 56 51  
Year to date cooling degree days 155 140  
Since 1 June cooling degree days 153 138  
Growing Degree Days 23 (Base 50)    
Moisture  
Dew Point 40 °F    
Average Humidity 34    
Maximum Humidity 49    
Minimum Humidity 19    
Precipitation  
Precipitation 0.00 in 0.04 in 1.92 in (1936)
Month to date precipitation 1.28 0.71  
Year to date precipitation 10.78 8.18  
Snow  
Snow 0.00 in - - ()
Snow Depth 0.00 in    
Sea Level Pressure  
Sea Level Pressure 29.83 in    
Wind  
Wind Speed 16 mph (WSW)    
Max Wind Speed 33 mph    
Max Gust Speed 40 mph    
Visibility 10 miles    
Events      
T = Trace of Precipitation, MM = Missing Value Source: NWS Daily Summary

Daily Weather History Graph

Daily Weather History Graph

Search for Another Location

Airport or City:

Trip Planner

Search our weather history database for the weather conditions in past years. The results will help you decide how hot, cold, wet, or windy it might be!

Date:

Astronomy

Aug. 19, 2013 Rise Set
Actual Time 6:28 AM MDT 8:36 PM MDT
Civil Twilight 5:54 AM MDT 9:10 PM MDT
Nautical Twilight 5:12 AM MDT 9:52 PM MDT
Astronomical Twilight 4:24 AM MDT 10:39 PM MDT
Moon 7:29 PM MDT (8/19) 4:49 AM MDT (8/19)
Length of Visible Light 15h 15m
Length of Day
14h 07m
Waxing Gibbous, 97% of the Moon is Illuminated
Aug 19
Waxing Gibbous
Aug 20
Full
Aug 28
Last Quarter
Sep 5
New
Sep 12
First Quarter

Hourly Weather History & Observations

Time (MDT) Temp. Dew Point Humidity Pressure Visibility Wind Dir Wind Speed Gust Speed Precip Events Conditions
12:56 AM 62.1 °F 39.0 °F 43% 29.89 in 10.0 mi WNW 10.4 mph - N/A   Clear
1:56 AM 60.1 °F 39.9 °F 47% 29.88 in 10.0 mi WNW 5.8 mph - N/A   Clear
2:56 AM 61.0 °F 41.0 °F 48% 29.87 in 10.0 mi West 8.1 mph - N/A   Clear
3:56 AM 62.1 °F 41.0 °F 46% 29.87 in 10.0 mi WSW 10.4 mph - N/A   Clear
4:56 AM 62.1 °F 39.9 °F 44% 29.87 in 10.0 mi West 9.2 mph - N/A   Clear
5:56 AM 63.0 °F 39.9 °F 43% 29.87 in 10.0 mi WSW 9.2 mph - N/A   Clear
6:56 AM 66.0 °F 39.9 °F 38% 29.87 in 10.0 mi WSW 13.8 mph - N/A   Clear
7:56 AM 68.0 °F 42.1 °F 39% 29.88 in 10.0 mi West 5.8 mph - N/A   Clear
8:56 AM 75.0 °F 39.9 °F 28% 29.86 in 10.0 mi WSW 17.3 mph 23.0 mph N/A   Clear
9:56 AM 78.1 °F 39.9 °F 25% 29.86 in 10.0 mi West 13.8 mph - N/A   Clear
10:56 AM 80.1 °F 39.9 °F 24% 29.84 in 10.0 mi WSW 17.3 mph 23.0 mph N/A   Clear
11:56 AM 82.0 °F 39.0 °F 22% 29.83 in 10.0 mi SW 20.7 mph 28.8 mph N/A   Clear
12:56 PM 84.0 °F 37.9 °F 19% 29.83 in 10.0 mi SW 20.7 mph 31.1 mph N/A   Clear
1:56 PM 86.0 °F 39.0 °F 19% 29.81 in 10.0 mi WSW 24.2 mph 35.7 mph N/A   Clear
2:56 PM 86.0 °F 39.9 °F 20% 29.80 in 10.0 mi West 25.3 mph 34.5 mph N/A   Clear
3:56 PM 86.0 °F 39.9 °F 20% 29.78 in 10.0 mi WSW 23.0 mph 34.5 mph N/A   Clear
4:56 PM 86.0 °F 41.0 °F 20% 29.78 in 10.0 mi WSW 24.2 mph 36.8 mph N/A   Clear
5:56 PM 84.0 °F 41.0 °F 22% 29.76 in 10.0 mi WSW 25.3 mph 33.4 mph N/A   Clear
6:56 PM 82.0 °F 39.9 °F 22% 29.76 in 10.0 mi WSW 25.3 mph 34.5 mph N/A   Clear
7:56 PM 79.0 °F 39.9 °F 25% 29.77 in 10.0 mi West 19.6 mph 27.6 mph N/A   Clear
8:56 PM 73.0 °F 42.1 °F 33% 29.79 in 10.0 mi West 13.8 mph - N/A   Clear
9:56 PM 71.1 °F 43.0 °F 36% 29.81 in 10.0 mi West 12.7 mph - N/A   Clear
10:56 PM 66.9 °F 43.0 °F 42% 29.82 in 10.0 mi West 11.5 mph - N/A   Clear
11:56 PM 66.0 °F 42.1 °F 42% 29.83 in 10.0 mi WSW 5.8 mph - N/A   Clear